Main page
METAR-TAF:

METAR-TAF

Airports :

Iranshahr, Iran

latitude: 27-12N, longitude: 060-42E, elevation: 591 m

Current weather observation

The report was made 44 minutes ago, at 15:00 UTC
Wind 14 kt from the West
Temperature 32°C
Humidity 32%
Pressure 1010 hPa
Visibility: 8000 m
Few clouds at a height of 4000 ft, Towering cumulus.
Broken clouds at a height of 20000 ft

METAR: OIZI 201500Z 27014KT 8000 FEW040TCU BKN200 32/13 Q1010

Time: 20:14 (15:44 UTC)


TAF: missing

Weather observations and forecasts of more than 4000 airports (METAR and TAF reports).

The available stations are represented by yellow and red dots on the map.

Hover mouse over dot to see the name of the station.

Then click to see weather observations and forecasts.

To change the map : click on the green buttons with a black cross to zoom in, on the green button with a dash to zoom out, or on the green arrows for adjacent maps.


METAR-TAF: